| time (UTC) | temp F | wind direction | speed knots | gust knots | rain 1hr in | rain 24hr in | rain mn in | humidity % | barometer mb |
| 20260903205516 | 57 | 360 | 0.9 | 4.3 | 0.00 | 0.00 | 0.00 | 79 | 1017.6 |
| 20260903205018 | 56 | 360 | 0.9 | 5.2 | 0.00 | 0.00 | 0.00 | 79 | 1017.9 |
| 20260903204534 | 56 | 360 | 0.9 | 5.2 | 0.00 | 0.00 | 0.00 | 79 | 1017.8 |
| 20260903204018 | 56 | 0 | 0.9 | 7.0 | 0.00 | 0.00 | 0.00 | 79 | 1017.8 |
| 20260903203517 | 56 | 0 | 0.9 | 7.0 | 0.00 | 0.00 | 0.00 | 80 | 1017.9 |
| 20260903203033 | 56 | 118 | 1.7 | 7.0 | 0.00 | 0.00 | 0.00 | 80 | 1018.0 |
| 20260903202520 | 56 | 96 | 1.7 | 6.1 | 0.00 | 0.00 | 0.00 | 80 | 1017.8 |
| 20260903202019 | 56 | 21 | 0.9 | 6.1 | 0.00 | 0.00 | 0.00 | 80 | 1018.1 |
| 20260903201535 | 56 | 27 | 0.0 | 4.3 | 0.00 | 0.00 | 0.00 | 81 | 1018.3 |
| 20260903201023 | 56 | 25 | 0.9 | 4.3 | 0.00 | 0.00 | 0.00 | 81 | 1018.3 |
| 20260903200518 | 56 | 13 | 0.9 | 7.0 | 0.00 | 0.00 | 0.00 | 81 | 1018.4 |
| 20260903200034 | 56 | 13 | 1.7 | 7.0 | 0.00 | 0.00 | 0.00 | 81 | 1018.3 |
| 20260903195516 | 55 | 17 | 1.7 | 4.3 | 0.00 | 0.00 | 0.00 | 81 | 1018.3 |
| 20260903195020 | 55 | 0 | 0.9 | 3.5 | 0.00 | 0.00 | 0.00 | 81 | 1018.5 |
| 20260903194534 | 55 | 17 | 1.7 | 4.3 | 0.00 | 0.00 | 0.00 | 81 | 1018.5 |
| 20260903194017 | 55 | 17 | 0.9 | 7.0 | 0.00 | 0.00 | 0.00 | 82 | 1018.5 |
| 20260903193518 | 55 | 16 | 1.7 | 7.0 | 0.00 | 0.00 | 0.00 | 82 | 1018.4 |
| 20260903193035 | 55 | 11 | 1.7 | 7.0 | 0.00 | 0.00 | 0.00 | 82 | 1018.6 |
| 20260903192519 | 55 | 18 | 1.7 | 4.3 | 0.00 | 0.00 | 0.00 | 82 | 1018.7 |
| 20260903192019 | 55 | 18 | 1.7 | 4.3 | 0.00 | 0.00 | 0.00 | 82 | 1018.8 |
| 20260903191532 | 55 | 26 | 0.9 | 7.0 | 0.00 | 0.00 | 0.00 | 82 | 1018.9 |
| 20260903191019 | 55 | 0 | 1.7 | 7.0 | 0.00 | 0.00 | 0.00 | 82 | 1018.9 |
| 20260903190517 | 55 | 34 | 1.7 | 5.2 | 0.00 | 0.00 | 0.00 | 82 | 1018.7 |
| 20260903190037 | 55 | 43 | 0.9 | 5.2 | 0.00 | 0.00 | 0.00 | 82 | 1018.8 |
| 20260903185515 | 55 | 49 | 0.9 | 5.2 | 0.00 | 0.00 | 0.00 | 82 | 1018.6 |
| 20260903185018 | 55 | 59 | 1.7 | 6.1 | 0.00 | 0.00 | 0.00 | 81 | 1018.3 |
| 20260903184537 | 55 | 58 | 1.7 | 6.1 | 0.00 | 0.00 | 0.00 | 81 | 1018.1 |
| 20260903184016 | 55 | 83 | 1.7 | 5.2 | 0.00 | 0.00 | 0.00 | 81 | 1018.2 |
| 20260903183520 | 54 | 65 | 0.0 | 4.3 | 0.00 | 0.00 | 0.00 | 80 | 1018.6 |
| 20260903183035 | 55 | 66 | 0.0 | 7.0 | 0.00 | 0.00 | 0.00 | 80 | 1018.7 |
| 20260903182522 | 54 | 74 | 0.9 | 7.0 | 0.00 | 0.00 | 0.00 | 80 | 1018.2 |
| 20260903182021 | 54 | 257 | 0.9 | 5.2 | 0.00 | 0.00 | 0.00 | 80 | 1018.2 |
| 20260903181536 | 55 | 258 | 0.0 | 2.6 | 0.00 | 0.00 | 0.00 | 79 | 1018.5 |
| 20260903181020 | 55 | 0 | 0.0 | 1.7 | 0.00 | 0.00 | 0.00 | 79 | 1018.9 |
| 20260903180519 | 55 | 0 | 0.0 | 0.0 | 0.00 | 0.00 | 0.00 | 79 | 1019.2 |
| 20260903180045 | 55 | 0 | 0.0 | 0.0 | 0.00 | 0.00 | 0.00 | 78 | 1019.3 |
| 20260903175518 | 55 | 0 | 0.0 | 0.0 | 0.00 | 0.00 | 0.00 | 78 | 1019.4 |
| 20260903175019 | 55 | 0 | 0.0 | 0.0 | 0.00 | 0.00 | 0.00 | 78 | 1019.4 |
| 20260903174536 | 55 | 0 | 0.0 | 0.0 | 0.00 | 0.00 | 0.00 | 78 | 1019.3 |
| 20260903174018 | 55 | 0 | 0.0 | 0.0 | 0.00 | 0.00 | 0.00 | 78 | 1019.3 |
| 20260903173520 | 56 | 0 | 0.0 | 0.0 | 0.00 | 0.00 | 0.00 | 78 | 1019.3 |
| 20260903173034 | 56 | 0 | 0.0 | 0.0 | 0.00 | 0.00 | 0.00 | 78 | 1019.4 |
| 20260903172518 | 56 | 0 | 0.0 | 1.7 | 0.00 | 0.00 | 0.00 | 78 | 1019.7 |
| 20260903172017 | 56 | 0 | 0.0 | 3.5 | 0.00 | 0.00 | 0.00 | 77 | 1019.8 |
| 20260903171543 | 56 | 0 | 0.9 | 3.5 | 0.00 | 0.00 | 0.00 | 77 | 1020.0 |
| 20260903171019 | 56 | 256 | 0.9 | 3.5 | 0.00 | 0.00 | 0.00 | 77 | 1020.2 |
| 20260903170516 | 56 | 244 | 0.0 | 3.5 | 0.00 | 0.00 | 0.00 | 77 | 1020.2 |
| 20260903170043 | 56 | 0 | 0.0 | 1.7 | 0.00 | 0.00 | 0.00 | 76 | 1020.1 |
| 20260903165522 | 56 | 0 | 0.0 | 1.7 | 0.00 | 0.00 | 0.00 | 76 | 1020.1 |
| 20260903165018 | 56 | 0 | 0.0 | 0.9 | 0.00 | 0.00 | 0.00 | 76 | 1020.1 |
| 20260903164542 | 56 | 0 | 0.0 | 0.9 | 0.00 | 0.00 | 0.00 | 76 | 1020.1 |
| 20260903164019 | 56 | 0 | 0.0 | 0.9 | 0.00 | 0.00 | 0.00 | 75 | 1020.1 |
| 20260903163517 | 56 | 0 | 0.0 | 0.9 | 0.00 | 0.00 | 0.00 | 75 | 1020.3 |
| 20260903163036 | 56 | 0 | 0.0 | 0.0 | 0.00 | 0.00 | 0.00 | 75 | 1020.4 |
| 20260903162515 | 56 | 0 | 0.0 | 0.0 | 0.00 | 0.00 | 0.00 | 75 | 1020.5 |
| 20260903162018 | 56 | 0 | 0.0 | 0.0 | 0.00 | 0.00 | 0.00 | 75 | 1020.6 |
| 20260903161533 | 56 | 0 | 0.0 | 0.0 | 0.00 | 0.00 | 0.00 | 74 | 1020.5 |
| 20260903161019 | 56 | 0 | 0.0 | 0.0 | 0.00 | 0.00 | 0.00 | 74 | 1020.4 |
| 20260903160522 | 56 | 0 | 0.0 | 0.0 | 0.00 | 0.00 | 0.00 | 74 | 1020.3 |
| 20260903160038 | 56 | 0 | 0.0 | 1.7 | 0.00 | 0.00 | 0.00 | 74 | 1020.4 |
| 20260903155518 | 56 | 0 | 0.0 | 1.7 | 0.00 | 0.00 | 0.00 | 74 | 1020.2 |
| 20260903155020 | 56 | 0 | 0.0 | 2.6 | 0.00 | 0.00 | 0.00 | 74 | 1020.3 |
| 20260903154538 | 56 | 0 | 0.0 | 2.6 | 0.00 | 0.00 | 0.00 | 74 | 1020.3 |
| 20260903154020 | 56 | 0 | 0.0 | 0.0 | 0.00 | 0.00 | 0.00 | 74 | 1020.5 |
| 20260903153520 | 56 | 0 | 0.0 | 0.0 | 0.00 | 0.00 | 0.00 | 74 | 1020.5 |
| 20260903153032 | 56 | 0 | 0.0 | 0.0 | 0.00 | 0.00 | 0.00 | 74 | 1020.6 |
| 20260903152516 | 56 | 0 | 0.0 | 1.7 | 0.00 | 0.00 | 0.00 | 74 | 1020.7 |
| 20260903152016 | 56 | 0 | 0.0 | 1.7 | 0.00 | 0.00 | 0.00 | 74 | 1020.8 |
| 20260903151537 | 56 | 0 | 0.0 | 1.7 | 0.00 | 0.00 | 0.00 | 74 | 1020.9 |
| 20260903151018 | 56 | 0 | 0.0 | 0.9 | 0.00 | 0.00 | 0.00 | 73 | 1020.9 |
| 20260903150523 | 56 | 0 | 0.0 | 0.9 | 0.00 | 0.00 | 0.00 | 73 | 1020.9 |
| 20260903150057 | 56 | 0 | 0.0 | 0.9 | 0.00 | 0.00 | 0.00 | 73 | 1021.0 |
| 20260903145517 | 56 | 0 | 0.0 | 1.7 | 0.00 | 0.00 | 0.00 | 73 | 1021.1 |
| 20260903145017 | 56 | 0 | 0.0 | 1.7 | 0.00 | 0.00 | 0.00 | 73 | 1021.1 |
| 20260903144537 | 56 | 0 | 0.0 | 1.7 | 0.00 | 0.00 | 0.00 | 73 | 1021.2 |
| 20260903144022 | 56 | 0 | 0.0 | 0.9 | 0.00 | 0.00 | 0.00 | 73 | 1021.3 |
| 20260903143519 | 56 | 0 | 0.0 | 0.9 | 0.00 | 0.00 | 0.00 | 73 | 1021.4 |
| 20260903143035 | 56 | 0 | 0.0 | 0.0 | 0.00 | 0.00 | 0.00 | 73 | 1021.4 |
| 20260903142518 | 56 | 0 | 0.0 | 0.9 | 0.00 | 0.00 | 0.00 | 73 | 1021.5 |
| 20260903142022 | 56 | 0 | 0.0 | 1.7 | 0.00 | 0.00 | 0.00 | 73 | 1021.4 |
| 20260903141536 | 56 | 0 | 0.0 | 1.7 | 0.00 | 0.00 | 0.00 | 73 | 1021.5 |
| 20260903141018 | 56 | 0 | 0.0 | 1.7 | 0.00 | 0.00 | 0.00 | 72 | 1021.6 |
| 20260903140518 | 56 | 0 | 0.0 | 0.0 | 0.00 | 0.00 | 0.00 | 72 | 1021.6 |
| 20260903140039 | 56 | 0 | 0.0 | 0.0 | 0.00 | 0.00 | 0.00 | 72 | 1021.6 |
| 20260903135516 | 56 | 0 | 0.0 | 0.0 | 0.00 | 0.00 | 0.00 | 72 | 1021.6 |
| 20260903135016 | 56 | 0 | 0.0 | 0.0 | 0.00 | 0.00 | 0.00 | 72 | 1021.7 |
| 20260903134531 | 56 | 0 | 0.0 | 0.0 | 0.00 | 0.00 | 0.00 | 72 | 1021.9 |
| 20260903134021 | 56 | 0 | 0.0 | 0.0 | 0.00 | 0.00 | 0.00 | 72 | 1021.9 |
| 20260903133515 | 56 | 0 | 0.0 | 0.0 | 0.00 | 0.00 | 0.00 | 72 | 1021.8 |
| 20260903133038 | 56 | 0 | 0.0 | 0.0 | 0.00 | 0.00 | 0.00 | 72 | 1022.0 |
| 20260903132522 | 56 | 0 | 0.0 | 0.0 | 0.00 | 0.00 | 0.00 | 72 | 1021.9 |
| 20260903132020 | 56 | 0 | 0.0 | 0.0 | 0.00 | 0.00 | 0.00 | 72 | 1022.1 |
| 20260903131536 | 56 | 0 | 0.0 | 0.0 | 0.00 | 0.00 | 0.00 | 72 | 1022.0 |
| 20260903131019 | 56 | 0 | 0.0 | 0.0 | 0.00 | 0.00 | 0.00 | 72 | 1022.1 |
| 20260903130519 | 56 | 0 | 0.0 | 0.0 | 0.00 | 0.00 | 0.00 | 72 | 1022.2 |
| 20260903130035 | 56 | 0 | 0.0 | 0.0 | 0.00 | 0.00 | 0.00 | 72 | 1022.2 |
| 20260903125518 | 56 | 0 | 0.0 | 0.0 | 0.00 | 0.00 | 0.00 | 72 | 1022.3 |
| 20260903125016 | 56 | 0 | 0.0 | 0.0 | 0.00 | 0.00 | 0.00 | 72 | 1022.3 |
| 20260903124543 | 56 | 0 | 0.0 | 0.0 | 0.00 | 0.00 | 0.00 | 72 | 1022.4 |
| 20260903124019 | 56 | 0 | 0.0 | 0.0 | 0.00 | 0.00 | 0.00 | 72 | 1022.3 |
| 20260903123522 | 56 | 0 | 0.0 | 0.0 | 0.00 | 0.00 | 0.00 | 72 | 1022.4 |
| 20260903123036 | 56 | 0 | 0.0 | 0.0 | 0.00 | 0.00 | 0.00 | 72 | 1022.5 |
| 20260903122516 | 56 | 0 | 0.0 | 0.0 | 0.00 | 0.00 | 0.00 | 72 | 1022.6 |
| 20260903122016 | 56 | 0 | 0.0 | 0.0 | 0.00 | 0.00 | 0.00 | 72 | 1022.6 |
| 20260903121532 | 56 | 0 | 0.0 | 0.0 | 0.00 | 0.00 | 0.00 | 72 | 1022.9 |
| 20260903121017 | 56 | 0 | 0.0 | 0.0 | 0.00 | 0.00 | 0.00 | 71 | 1022.9 |
| 20260903120522 | 56 | 0 | 0.0 | 0.0 | 0.00 | 0.00 | 0.00 | 71 | 1022.8 |
| 20260903120031 | 56 | 0 | 0.0 | 0.0 | 0.00 | 0.00 | 0.00 | 71 | 1022.9 |
| 20260903115515 | 56 | 0 | 0.0 | 0.0 | 0.00 | 0.00 | 0.00 | 71 | 1023.0 |
| 20260903115019 | 56 | 0 | 0.0 | 0.0 | 0.00 | 0.00 | 0.00 | 71 | 1022.9 |
| 20260903114535 | 56 | 0 | 0.0 | 0.0 | 0.00 | 0.00 | 0.00 | 71 | 1023.0 |
| 20260903114021 | 56 | 0 | 0.0 | 0.0 | 0.00 | 0.00 | 0.00 | 70 | 1023.0 |
| 20260903113519 | 56 | 0 | 0.0 | 0.0 | 0.00 | 0.00 | 0.00 | 70 | 1023.0 |
| 20260903113033 | 56 | 0 | 0.0 | 0.0 | 0.00 | 0.00 | 0.00 | 70 | 1022.8 |
| 20260903112519 | 56 | 0 | 0.0 | 0.0 | 0.00 | 0.00 | 0.00 | 70 | 1022.8 |
| 20260903112019 | 56 | 0 | 0.0 | 0.0 | 0.00 | 0.00 | 0.00 | 70 | 1022.8 |
| 20260903111533 | 56 | 0 | 0.0 | 0.0 | 0.00 | 0.00 | 0.00 | 69 | 1022.8 |
| 20260903111018 | 57 | 0 | 0.0 | 0.0 | 0.00 | 0.00 | 0.00 | 69 | 1022.7 |
| 20260903110517 | 57 | 0 | 0.0 | 0.0 | 0.00 | 0.00 | 0.00 | 69 | 1022.7 |
| 20260903110036 | 57 | 0 | 0.0 | 0.0 | 0.00 | 0.00 | 0.00 | 68 | 1022.6 |
| 20260903105520 | 57 | 0 | 0.0 | 0.0 | 0.00 | 0.00 | 0.00 | 68 | 1022.6 |
| 20260903105021 | 57 | 0 | 0.0 | 0.0 | 0.00 | 0.00 | 0.00 | 68 | 1022.6 |
| 20260903104535 | 57 | 0 | 0.0 | 0.0 | 0.00 | 0.00 | 0.00 | 68 | 1022.6 |
| 20260903104022 | 57 | 0 | 0.0 | 0.0 | 0.00 | 0.00 | 0.00 | 67 | 1022.4 |
| 20260903103516 | 57 | 0 | 0.0 | 0.0 | 0.00 | 0.00 | 0.00 | 67 | 1022.5 |
| 20260903103032 | 57 | 0 | 0.0 | 0.0 | 0.00 | 0.00 | 0.00 | 67 | 1022.4 |
| 20260903102517 | 57 | 0 | 0.0 | 0.0 | 0.00 | 0.00 | 0.00 | 67 | 1022.2 |
| 20260903102019 | 58 | 0 | 0.0 | 0.0 | 0.00 | 0.00 | 0.00 | 66 | 1022.2 |
| 20260903101536 | 58 | 0 | 0.0 | 0.0 | 0.00 | 0.00 | 0.00 | 67 | 1022.2 |
| 20260903101017 | 58 | 0 | 0.0 | 0.0 | 0.00 | 0.00 | 0.00 | 67 | 1022.0 |
| 20260903100519 | 58 | 0 | 0.0 | 0.0 | 0.00 | 0.00 | 0.00 | 67 | 1022.0 |
| 20260903100036 | 58 | 0 | 0.0 | 0.0 | 0.00 | 0.00 | 0.00 | 67 | 1021.9 |
| 20260903095525 | 58 | 0 | 0.0 | 0.0 | 0.00 | 0.00 | 0.00 | 67 | 1021.8 |
| 20260903095019 | 58 | 0 | 0.0 | 0.0 | 0.00 | 0.00 | 0.00 | 67 | 1021.8 |
| 20260903094534 | 59 | 0 | 0.0 | 0.0 | 0.00 | 0.00 | 0.00 | 67 | 1021.8 |
| 20260903094016 | 59 | 0 | 0.0 | 0.0 | 0.00 | 0.00 | 0.00 | 67 | 1021.8 |
| 20260903093519 | 59 | 0 | 0.0 | 0.0 | 0.00 | 0.00 | 0.00 | 67 | 1021.8 |
| 20260903093035 | 59 | 0 | 0.0 | 0.0 | 0.00 | 0.00 | 0.00 | 67 | 1021.9 |
| 20260903092520 | 59 | 0 | 0.0 | 0.0 | 0.00 | 0.00 | 0.00 | 66 | 1021.9 |
| 20260903092018 | 59 | 0 | 0.0 | 0.0 | 0.00 | 0.00 | 0.00 | 66 | 1021.7 |
| 20260903091534 | 59 | 0 | 0.0 | 0.0 | 0.00 | 0.00 | 0.00 | 66 | 1021.7 |
| 20260903091016 | 59 | 0 | 0.0 | 0.0 | 0.00 | 0.00 | 0.00 | 66 | 1021.6 |
| 20260903090518 | 59 | 0 | 0.0 | 0.0 | 0.00 | 0.00 | 0.00 | 66 | 1021.6 |
| 20260903090034 | 59 | 0 | 0.0 | 0.0 | 0.00 | 0.00 | 0.00 | 66 | 1021.5 |
| 20260903085520 | 59 | 0 | 0.0 | 0.0 | 0.00 | 0.00 | 0.00 | 66 | 1021.5 |
| 20260903085022 | 59 | 0 | 0.0 | 1.7 | 0.00 | 0.00 | 0.00 | 65 | 1021.5 |
| 20260903084543 | 60 | 0 | 0.0 | 1.7 | 0.00 | 0.00 | 0.00 | 65 | 1021.5 |
| 20260903084016 | 60 | 0 | 0.0 | 1.7 | 0.00 | 0.00 | 0.00 | 65 | 1021.5 |
| 20260903083516 | 60 | 0 | 0.0 | 1.7 | 0.00 | 0.00 | 0.00 | 65 | 1021.6 |
| 20260903083035 | 60 | 0 | 0.0 | 2.6 | 0.00 | 0.00 | 0.00 | 65 | 1021.5 |
| 20260903082515 | 60 | 0 | 0.0 | 2.6 | 0.00 | 0.00 | 0.00 | 64 | 1021.4 |
| 20260903082018 | 60 | 0 | 0.0 | 2.6 | 0.00 | 0.00 | 0.00 | 64 | 1021.3 |
| 20260903081535 | 60 | 0 | 0.0 | 2.6 | 0.00 | 0.00 | 0.00 | 64 | 1021.3 |
| 20260903081017 | 61 | 238 | 0.0 | 2.6 | 0.00 | 0.00 | 0.00 | 64 | 1021.1 |
| 20260903080516 | 61 | 238 | 0.0 | 2.6 | 0.00 | 0.00 | 0.00 | 64 | 1021.2 |
| 20260903080041 | 61 | 238 | 0.0 | 2.6 | 0.00 | 0.00 | 0.00 | 64 | 1021.0 |
| 20260903075521 | 61 | 0 | 0.0 | 2.6 | 0.00 | 0.00 | 0.00 | 64 | 1021.0 |
| 20260903075019 | 61 | 0 | 0.0 | 2.6 | 0.00 | 0.00 | 0.00 | 64 | 1020.9 |
| 20260903074541 | 61 | 237 | 0.9 | 4.3 | 0.00 | 0.00 | 0.00 | 63 | 1020.9 |
| 20260903074024 | 61 | 238 | 0.9 | 4.3 | 0.00 | 0.00 | 0.00 | 64 | 1020.8 |
| 20260903073519 | 61 | 238 | 1.7 | 4.3 | 0.00 | 0.00 | 0.00 | 64 | 1020.8 |
| 20260903073033 | 61 | 241 | 0.9 | 4.3 | 0.00 | 0.00 | 0.00 | 63 | 1020.6 |
| 20260903072519 | 61 | 0 | 0.0 | 6.1 | 0.00 | 0.00 | 0.00 | 63 | 1020.7 |
| 20260903072018 | 62 | 246 | 1.7 | 6.1 | 0.00 | 0.00 | 0.00 | 62 | 1020.8 |
| 20260903071535 | 62 | 242 | 0.9 | 6.1 | 0.00 | 0.00 | 0.00 | 62 | 1020.8 |
| 20260903071017 | 62 | 248 | 1.7 | 6.1 | 0.00 | 0.00 | 0.00 | 62 | 1020.9 |
| 20260903070515 | 62 | 270 | 0.9 | 5.2 | 0.00 | 0.00 | 0.00 | 62 | 1020.8 |
| 20260903070037 | 62 | 275 | 1.7 | 5.2 | 0.00 | 0.00 | 0.00 | 62 | 1020.9 |
| 20260903065521 | 63 | 0 | 1.7 | 5.2 | 0.00 | 0.00 | 0.00 | 62 | 1020.8 |
| 20260903065020 | 63 | 273 | 0.9 | 5.2 | 0.00 | 0.00 | 0.00 | 63 | 1020.6 |
| 20260903064533 | 62 | 273 | 0.9 | 5.2 | 0.00 | 0.00 | 0.00 | 62 | 1020.5 |
| 20260903064017 | 63 | 279 | 0.9 | 6.1 | 0.00 | 0.00 | 0.00 | 62 | 1020.5 |
| 20260903063522 | 63 | 304 | 1.7 | 6.1 | 0.00 | 0.00 | 0.00 | 61 | 1020.5 |
| 20260903063031 | 63 | 251 | 0.9 | 4.3 | 0.00 | 0.00 | 0.00 | 62 | 1020.5 |
| 20260903062518 | 63 | 0 | 0.9 | 7.0 | 0.00 | 0.00 | 0.00 | 61 | 1020.5 |
| 20260903062019 | 63 | 275 | 1.7 | 7.0 | 0.00 | 0.00 | 0.00 | 61 | 1020.5 |
| 20260903061538 | 63 | 215 | 2.6 | 5.2 | 0.00 | 0.00 | 0.00 | 61 | 1020.5 |
| 20260903061022 | 63 | 222 | 1.7 | 6.1 | 0.00 | 0.00 | 0.00 | 61 | 1020.5 |
| 20260903060518 | 63 | 202 | 0.9 | 9.6 | 0.00 | 0.00 | 0.00 | 62 | 1020.4 |
| 20260903060041 | 63 | 252 | 2.6 | 9.6 | 0.00 | 0.00 | 0.00 | 63 | 1020.5 |
| 20260903055519 | 63 | 113 | 1.7 | 7.0 | 0.00 | 0.00 | 0.00 | 65 | 1020.5 |
| 20260903055020 | 63 | 226 | 1.7 | 7.0 | 0.00 | 0.00 | 0.00 | 67 | 1020.4 |
| 20260903054539 | 63 | 205 | 1.7 | 7.0 | 0.00 | 0.00 | 0.00 | 68 | 1020.6 |
| 20260903054019 | 62 | 228 | 1.7 | 9.6 | 0.00 | 0.00 | 0.00 | 68 | 1020.5 |
| 20260903053522 | 62 | 229 | 2.6 | 9.6 | 0.00 | 0.00 | 0.00 | 67 | 1020.6 |
| 20260903053045 | 62 | 249 | 1.7 | 8.7 | 0.00 | 0.00 | 0.00 | 67 | 1020.4 |
| 20260903052521 | 62 | 256 | 1.7 | 8.7 | 0.00 | 0.00 | 0.00 | 67 | 1020.4 |
| 20260903052016 | 62 | 206 | 2.6 | 8.7 | 0.00 | 0.00 | 0.00 | 67 | 1020.4 |
| 20260903051537 | 62 | 256 | 2.6 | 7.8 | 0.00 | 0.00 | 0.00 | 67 | 1020.3 |
| 20260903051017 | 62 | 268 | 1.7 | 8.7 | 0.00 | 0.00 | 0.00 | 68 | 1020.3 |
| 20260903050519 | 62 | 203 | 3.5 | 8.7 | 0.00 | 0.00 | 0.00 | 68 | 1020.3 |
| 20260903050038 | 62 | 148 | 1.7 | 6.1 | 0.00 | 0.00 | 0.00 | 69 | 1020.3 |
| 20260903045519 | 62 | 0 | 0.9 | 7.0 | 0.00 | 0.00 | 0.00 | 69 | 1020.2 |
| 20260903045016 | 62 | 257 | 1.7 | 13.0 | 0.00 | 0.00 | 0.00 | 69 | 1020.2 |
| 20260903044532 | 62 | 236 | 2.6 | 13.0 | 0.00 | 0.00 | 0.00 | 69 | 1020.2 |
| 20260903044018 | 62 | 259 | 1.7 | 7.8 | 0.00 | 0.00 | 0.00 | 70 | 1020.2 |
| 20260903043520 | 62 | 201 | 2.6 | 8.7 | 0.00 | 0.00 | 0.00 | 69 | 1020.1 |
| 20260903043035 | 62 | 250 | 2.6 | 8.7 | 0.00 | 0.00 | 0.00 | 69 | 1020.1 |
| 20260903042517 | 62 | 238 | 3.5 | 8.7 | 0.00 | 0.00 | 0.00 | 69 | 1020.1 |
| 20260903042022 | 63 | 226 | 0.9 | 7.0 | 0.00 | 0.00 | 0.00 | 70 | 1020.0 |
| 20260903041535 | 62 | 208 | 0.0 | 5.2 | 0.00 | 0.00 | 0.00 | 70 | 1020.0 |
| 20260903041019 | 63 | 202 | 1.7 | 7.8 | 0.00 | 0.00 | 0.00 | 69 | 1020.1 |
| 20260903040517 | 63 | 206 | 1.7 | 7.8 | 0.00 | 0.00 | 0.00 | 70 | 1020.0 |
| 20260903040037 | 63 | 222 | 0.9 | 5.2 | 0.00 | 0.00 | 0.00 | 70 | 1020.0 |
| 20260903035516 | 63 | 223 | 0.9 | 9.6 | 0.00 | 0.00 | 0.00 | 70 | 1020.1 |
| 20260903035018 | 63 | 0 | 0.9 | 9.6 | 0.00 | 0.00 | 0.00 | 70 | 1020.1 |
| 20260903034531 | 63 | 197 | 2.6 | 9.6 | 0.00 | 0.00 | 0.00 | 71 | 1020.0 |
| 20260903034019 | 63 | 240 | 1.7 | 7.0 | 0.00 | 0.00 | 0.00 | 72 | 1020.1 |
| 20260903033517 | 63 | 293 | 0.9 | 7.0 | 0.00 | 0.00 | 0.00 | 73 | 1020.0 |
| 20260903033034 | 63 | 267 | 1.7 | 7.0 | 0.00 | 0.00 | 0.00 | 74 | 1020.1 |
| 20260903032523 | 63 | 251 | 1.7 | 5.2 | 0.00 | 0.00 | 0.00 | 74 | 1020.2 |
| 20260903032022 | 63 | 252 | 1.7 | 6.1 | 0.00 | 0.00 | 0.00 | 75 | 1020.1 |
| 20260903031534 | 62 | 251 | 1.7 | 6.1 | 0.00 | 0.00 | 0.00 | 75 | 1020.1 |
| 20260903031019 | 62 | 239 | 1.7 | 6.1 | 0.00 | 0.00 | 0.00 | 76 | 1020.2 |
| 20260903030516 | 62 | 235 | 1.7 | 7.8 | 0.00 | 0.00 | 0.00 | 77 | 1020.2 |
| 20260903030033 | 62 | 255 | 2.6 | 7.8 | 0.00 | 0.00 | 0.00 | 77 | 1020.1 |
| 20260903025519 | 62 | 210 | 2.6 | 5.2 | 0.00 | 0.00 | 0.00 | 78 | 1020.1 |
| 20260903025016 | 61 | 190 | 1.7 | 6.1 | 0.00 | 0.00 | 0.00 | 79 | 1020.2 |
| 20260903024535 | 61 | 225 | 1.7 | 8.7 | 0.00 | 0.00 | 0.00 | 79 | 1020.1 |
| 20260903024016 | 61 | 230 | 2.6 | 8.7 | 0.00 | 0.00 | 0.00 | 80 | 1020.1 |
| 20260903023517 | 61 | 209 | 0.9 | 9.6 | 0.00 | 0.00 | 0.00 | 81 | 1020.2 |
| 20260903023034 | 61 | 205 | 1.7 | 9.6 | 0.00 | 0.00 | 0.00 | 82 | 1020.3 |
| 20260903022520 | 61 | 213 | 2.6 | 7.8 | 0.00 | 0.00 | 0.00 | 82 | 1020.2 |
| 20260903022019 | 61 | 270 | 0.9 | 6.1 | 0.00 | 0.00 | 0.00 | 83 | 1020.3 |
| 20260903021534 | 61 | 263 | 1.7 | 6.1 | 0.00 | 0.00 | 0.00 | 83 | 1020.2 |
| 20260903021020 | 61 | 248 | 1.7 | 6.1 | 0.00 | 0.00 | 0.00 | 84 | 1020.2 |
| 20260903020516 | 61 | 199 | 0.9 | 3.5 | 0.00 | 0.00 | 0.00 | 83 | 1020.2 |
| 20260903020036 | 61 | 0 | 0.0 | 4.3 | 0.00 | 0.00 | 0.00 | 83 | 1020.3 |
| 20260903015520 | 61 | 194 | 0.9 | 4.3 | 0.00 | 0.00 | 0.00 | 83 | 1020.3 |
| 20260903015016 | 60 | 196 | 0.0 | 3.5 | 0.00 | 0.00 | 0.00 | 84 | 1020.4 |
| 20260903014532 | 60 | 0 | 0.0 | 6.1 | 0.00 | 0.00 | 0.00 | 83 | 1020.3 |
| 20260903014018 | 60 | 194 | 1.7 | 8.7 | 0.00 | 0.00 | 0.00 | 82 | 1020.3 |
| 20260903013515 | 60 | 271 | 2.6 | 10.4 | 0.00 | 0.00 | 0.00 | 82 | 1020.3 |
| 20260903013035 | 60 | 329 | 2.6 | 10.4 | 0.00 | 0.00 | 0.00 | 81 | 1020.2 |
| 20260903012521 | 60 | 330 | 3.5 | 8.7 | 0.00 | 0.00 | 0.00 | 81 | 1020.1 |
| 20260903012015 | 60 | 271 | 3.5 | 9.6 | 0.00 | 0.00 | 0.00 | 81 | 1020.1 |
| 20260903011535 | 60 | 265 | 3.5 | 9.6 | 0.00 | 0.00 | 0.00 | 81 | 1020.1 |
| 20260903011021 | 60 | 265 | 3.5 | 8.7 | 0.00 | 0.00 | 0.00 | 81 | 1020.1 |
| 20260903010519 | 60 | 264 | 2.6 | 7.0 | 0.00 | 0.00 | 0.00 | 82 | 1020.0 |
| 20260903010032 | 60 | 336 | 3.5 | 8.7 | 0.00 | 0.00 | 0.00 | 82 | 1020.1 |
| 20260903005518 | 60 | 318 | 2.6 | 9.6 | 0.00 | 0.00 | 0.00 | 82 | 1020.3 |
| 20260903005020 | 60 | 266 | 2.6 | 9.6 | 0.00 | 0.00 | 0.00 | 82 | 1020.2 |
| 20260903004532 | 60 | 312 | 2.6 | 7.8 | 0.00 | 0.00 | 0.00 | 83 | 1020.2 |
| 20260903004018 | 60 | 309 | 2.6 | 8.7 | 0.00 | 0.00 | 0.00 | 83 | 1020.1 |
| 20260903003520 | 59 | 318 | 3.5 | 8.7 | 0.00 | 0.00 | 0.00 | 83 | 1020.3 |
| 20260903003032 | 59 | 304 | 3.5 | 9.6 | 0.00 | 0.00 | 0.00 | 84 | 1020.2 |
| 20260903002521 | 59 | 325 | 4.3 | 9.6 | 0.00 | 0.00 | 0.00 | 84 | 1020.2 |
| 20260903002020 | 59 | 292 | 3.5 | 8.7 | 0.00 | 0.00 | 0.00 | 84 | 1020.3 |
| 20260903001533 | 59 | 296 | 2.6 | 9.6 | 0.00 | 0.00 | 0.00 | 84 | 1020.3 |
| 20260903001022 | 59 | 301 | 2.6 | 9.6 | 0.00 | 0.00 | 0.00 | 84 | 1020.3 |
| 20260903000519 | 59 | 317 | 2.6 | 10.4 | 0.00 | 0.00 | 0.00 | 85 | 1020.3 |
| 20260903000036 | 58 | 302 | 4.3 | 10.4 | 0.00 | 0.00 | 0.00 | 85 | 1020.3 |
| 20260902235518 | 58 | 315 | 2.6 | 8.7 | 0.00 | 0.00 | 0.00 | 85 | 1020.3 |
| 20260902235019 | 58 | 320 | 2.6 | 8.7 | 0.00 | 0.00 | 0.00 | 85 | 1020.2 |
| 20260902234533 | 58 | 327 | 3.5 | 11.3 | 0.00 | 0.00 | 0.00 | 85 | 1020.1 |
| 20260902234018 | 58 | 313 | 3.5 | 11.3 | 0.00 | 0.00 | 0.00 | 86 | 1020.1 |
| 20260902233520 | 57 | 284 | 3.5 | 9.6 | 0.00 | 0.00 | 0.00 | 86 | 1020.0 |
| 20260902233033 | 57 | 333 | 2.6 | 9.6 | 0.00 | 0.00 | 0.00 | 86 | 1019.9 |
| 20260902232519 | 57 | 308 | 3.5 | 9.6 | 0.00 | 0.00 | 0.00 | 86 | 1020.0 |
| 20260902232019 | 56 | 298 | 2.6 | 7.0 | 0.00 | 0.00 | 0.00 | 86 | 1019.9 |
| 20260902231534 | 55 | 314 | 0.9 | 4.3 | 0.00 | 0.00 | 0.00 | 86 | 1019.9 |
| 20260902231018 | 55 | 324 | 0.0 | 3.5 | 0.00 | 0.00 | 0.00 | 86 | 1019.8 |
| 20260902230518 | 55 | 323 | 0.9 | 3.5 | 0.00 | 0.00 | 0.00 | 86 | 1019.7 |
| 20260902230034 | 55 | 323 | 0.0 | 3.5 | 0.00 | 0.00 | 0.00 | 85 | 1019.8 |
| 20260902225516 | 54 | 323 | 0.9 | 4.3 | 0.00 | 0.00 | 0.00 | 85 | 1019.7 |
| 20260902225018 | 54 | 0 | 1.7 | 4.3 | 0.00 | 0.00 | 0.00 | 85 | 1019.6 |
| 20260902224542 | 54 | 331 | 0.9 | 3.5 | 0.00 | 0.00 | 0.00 | 85 | 1019.7 |
| 20260902224017 | 54 | 332 | 0.0 | 3.5 | 0.00 | 0.00 | 0.00 | 85 | 1019.6 |
| 20260902223521 | 53 | 332 | 0.9 | 3.5 | 0.00 | 0.00 | 0.00 | 85 | 1019.5 |
| 20260902223036 | 53 | 331 | 0.0 | 2.6 | 0.00 | 0.00 | 0.00 | 85 | 1019.3 |
| 20260902222522 | 53 | 0 | 0.0 | 2.6 | 0.00 | 0.00 | 0.00 | 85 | 1019.3 |
| 20260902222022 | 53 | 0 | 0.0 | 2.6 | 0.00 | 0.00 | 0.00 | 84 | 1019.2 |
| 20260902221540 | 53 | 0 | 0.0 | 3.5 | 0.00 | 0.00 | 0.00 | 84 | 1019.2 |
| 20260902221019 | 53 | 331 | 0.0 | 3.5 | 0.00 | 0.00 | 0.00 | 84 | 1019.0 |
| 20260902220517 | 53 | 331 | 0.0 | 4.3 | 0.00 | 0.00 | 0.00 | 84 | 1019.0 |
| 20260902220044 | 53 | 0 | 0.0 | 4.3 | 0.00 | 0.00 | 0.00 | 84 | 1018.9 |
| 20260902215518 | 53 | 331 | 0.9 | 3.5 | 0.00 | 0.00 | 0.00 | 84 | 1018.9 |
| 20260902215015 | 53 | 324 | 0.9 | 3.5 | 0.00 | 0.00 | 0.00 | 84 | 1018.8 |
| 20260902214535 | 53 | 324 | 0.9 | 3.5 | 0.00 | 0.00 | 0.00 | 84 | 1018.8 |
| 20260902214016 | 53 | 0 | 0.0 | 4.3 | 0.00 | 0.00 | 0.00 | 84 | 1018.6 |
| 20260902213515 | 53 | 0 | 0.9 | 4.3 | 0.00 | 0.00 | 0.00 | 83 | 1018.6 |
| 20260902213033 | 53 | 0 | 0.0 | 3.5 | 0.00 | 0.00 | 0.00 | 83 | 1018.5 |
| 20260902212521 | 53 | 0 | 0.9 | 3.5 | 0.00 | 0.00 | 0.00 | 83 | 1018.4 |
| 20260902212019 | 53 | 321 | 0.9 | 4.3 | 0.00 | 0.00 | 0.00 | 83 | 1018.4 |
| 20260902211535 | 53 | 321 | 0.9 | 4.3 | 0.00 | 0.00 | 0.00 | 83 | 1018.3 |
| 20260902211019 | 53 | 321 | 0.9 | 4.3 | 0.00 | 0.00 | 0.00 | 83 | 1018.2 |
| 20260902210518 | 53 | 320 | 0.0 | 4.3 | 0.00 | 0.00 | 0.00 | 83 | 1018.3 |
| 20260902210106 | 53 | 319 | 0.9 | 4.3 | 0.00 | 0.00 | 0.00 | 83 | 1018.2 |